sat.trackr.live / text

‹ back to catalog

STARLINK-33600

NORAD 62772 · 2025-015Q

PAYLOAD ACTIVE UNKNOWN

§ Identity

Operator
Country
US
Launch date
2025-01-21
Launch site
AFWTR
Launch vehicle
Mass (kg)
RCS (m²)

Purposes: comms

External: N2YO · Heavens-Above · Gunter

§ Orbital elements

Epoch: 2026-09-21T22:25:49.687104Z

Period
94.01 min
Inclination
53.1595°
Eccentricity
0.0001480
Mean motion
15.31714187 rev/d
Perigee alt
469.7 km
Apogee alt
471.7 km
Semi-major
6,848.8 km
B*
3.9030e-4
RAAN
129.7383°
Arg perigee
101.1204°
Mean anomaly
258.9964°
Rev number
9,454

§ Raw data

STARLINK-336001 62772U 25015Q   26264.93460286  .00011771  00000+0  39030-3 0  99992 62772  53.1595 129.7383 0001480 101.1204 258.9964 15.31714187 94542

JSON: /api/v1/satellites/62772 · /tle

For live sub-satellite position, see the globe view (requires WebGL).

§ Visibility from observer

Set your observer location to see the next 7 days of passes ≥ 10°. The values pass through the URL so the page stays shareable.

No JS? Fill the form by hand. The geolocation button needs JavaScript.